Date,TemperatureHighF,TemperatureAvgF,TemperatureLowF,DewpointHighF,DewpointAvgF,DewpointLowF,HumidityHigh,HumidityAvg,HumidityLow,PressureMaxIn,PressureMinIn,WindSpeedMaxMPH,WindSpeedAvgMPH,GustSpeedMaxMPH,PrecipitationSumIn
2013-1-1,32,21,6,28,16,4,92,80,70,30.34,30.14,12,6,17,0.00
2013-1-2,24,17,4,20,13,2,100,84,73,30.55,30.30,12,5,18,0.00
2013-1-3,28,17,9,22,14,7,92,87,75,30.54,30.30,9,3,15,0.00
2013-1-4,34,31,30,26,22,19,82,70,59,30.31,30.17,15,10,23,0.00
2013-1-5,33,30,27,26,24,21,83,76,66,30.60,30.31,15,6,26,0.00
2013-1-6,37,33,29,32,28,23,92,82,74,30.38,30.19,9,5,17,0.01
2013-1-7,34,28,23,32,23,19,93,85,71,30.69,30.35,8,4,12,0.00
2013-1-8,37,28,22,25,21,17,85,74,58,30.64,30.49,8,2,13,0.00
2013-1-9,26,23,21,21,19,17,87,83,78,30.61,30.58,5,2,7,0.00
2013-1-10,40,35,31,29,28,27,87,76,64,30.88,30.75,7,3,10,0.00
2013-1-11,41,37,32,36,32,27,90,81,69,30.75,30.23,17,11,27,0.16
2013-1-12,52,44,38,47,42,35,96,91,84,30.33,30.27,10,5,15,0.00
2013-1-13,56,51,45,51,48,43,96,89,82,30.29,30.07,12,7,23,0.00
2013-1-14,52,36,28,49,31,21,92,79,66,30.66,30.02,15,7,20,0.01
2013-1-15,33,28,25,23,21,20,84,75,64,30.70,30.50,7,3,12,0.00
2013-1-16,36,31,28,30,26,22,94,83,64,30.50,30.07,8,4,14,0.00
2013-1-17,34,25,16,28,20,14,90,80,63,30.49,30.16,13,6,20,0.00
2013-1-18,29,19,9,17,11,6,92,73,56,30.74,30.38,11,5,19,0.00
2013-1-19,47,41,29,31,25,16,59,52,42,30.39,29.92,13,8,24,0.00
2013-1-20,46,31,18,34,19,8,86,63,45,30.36,29.74,26,13,40,0.07
2013-1-21,21,18,16,16,10,6,88,69,60,30.35,30.16,9,4,17,0.00
2013-1-22,13,9,6,2,-1,-6,71,63,44,30.51,30.32,16,11,24,0.00
2013-1-23,10,5,-2,5,0,-5,87,78,64,30.56,30.45,11,4,15,0.00
2013-1-24,12,6,-1,8,1,-4,89,81,69,30.84,30.44,12,5,17,0.00
2013-1-25,14,10,4,10,6,1,92,82,70,30.82,30.41,8,3,14,0.00
2013-1-26,21,10,-5,13,5,-9,90,82,67,30.72,30.42,7,1,10,0.00
2013-1-27,25,20,11,17,15,8,89,81,68,30.88,30.71,6,3,9,0.00
2013-1-28,27,24,22,26,19,15,94,79,72,30.71,30.40,12,7,14,0.00
2013-1-29,50,44,33,49,43,33,98,97,94,30.35,30.09,12,6,13,0.35
2013-1-30,61,55,50,55,51,47,95,85,79,30.08,29.32,18,11,33,0.02
2013-1-31,54,30,19,51,24,14,94,78,60,29.99,29.28,23,14,36,0.19
2013-2-1,20,18,15,14,12,8,90,77,63,30.50,29.99,14,8,21,0.00
2013-2-2,21,16,12,15,10,5,87,76,63,30.51,30.28,13,6,17,0.00
2013-2-3,25,17,8,18,12,6,91,81,55,30.29,30.08,9,3,13,0.00
2013-2-4,21,18,16,13,10,8,82,72,59,30.26,30.15,13,8,22,0.00
2013-2-5,25,19,12,19,15,9,89,83,73,30.28,30.14,7,2,9,0.00
2013-2-6,26,22,11,23,16,7,92,77,60,30.69,30.18,13,6,19,0.00
2013-2-7,31,22,8,21,15,5,89,75,63,30.76,30.42,14,5,22,0.00
2013-2-8,35,30,18,31,26,17,96,86,63,30.41,30.06,16,7,27,0.00
2013-2-9,19,16,8,17,14,6,93,91,89,30.74,30.31,0,0,0,0.00
2013-2-10,34,19,2,25,14,-2,92,79,56,30.75,30.33,14,5,21,0.01
2013-2-11,43,36,34,37,29,22,91,75,58,30.34,29.86,20,12,27,0.07
2013-2-12,34,32,30,27,25,22,82,76,69,30.26,30.00,18,11,34,0.00
2013-2-13,30,29,29,25,24,23,81,79,78,30.22,30.19,7,3,9,0.00
2013-2-14,39,34,28,33,29,24,94,82,66,30.23,30.10,7,5,11,0.07
2013-2-15,37,33,25,34,25,17,93,72,62,30.34,30.08,15,8,25,0.00
2013-2-16,25,23,19,18,15,12,82,73,58,30.34,30.22,6,3,17,0.00
2013-2-17,20,17,14,15,11,8,92,78,63,30.26,30.18,10,4,14,0.00
2013-2-19,40,32,24,34,27,17,93,82,62,30.05,29.84,16,10,24,0.06
2013-2-20,25,21,18,19,14,11,92,75,64,30.35,30.04,17,12,27,0.00
2013-2-21,20,17,12,17,12,7,90,83,76,30.73,30.31,17,9,23,0.00
2013-2-22,33,26,19,26,21,16,91,82,69,30.71,30.34,15,7,23,0.00
2013-2-23,38,33,30,34,30,26,92,86,79,30.35,30.15,12,6,22,0.02
2013-2-24,31,30,28,26,24,22,88,80,73,30.33,30.13,12,7,18,0.00
2013-2-25,36,32,27,29,26,22,92,80,58,30.53,30.33,10,5,18,0.00
2013-2-26,40,32,23,31,27,21,96,82,62,30.54,30.16,13,6,19,0.02
2013-2-27,34,32,31,33,32,30,98,97,95,30.16,29.85,7,1,10,0.77
2013-2-28,36,34,32,33,31,30,96,90,80,29.99,29.83,8,4,13,0.18
2013-3-1,32,28,25,31,26,21,96,91,84,30.20,29.99,11,7,16,0.02
2013-3-2,25,23,21,24,20,18,93,89,84,30.22,30.16,10,7,15,0.00
2013-3-3,22,21,19,20,18,16,92,87,78,30.19,30.13,10,6,17,0.00
2013-3-4,27,24,20,22,19,16,87,81,72,30.33,30.18,13,10,22,0.00
2013-3-5,29,25,22,24,21,19,90,84,76,30.40,30.28,10,4,15,0.01
2013-3-6,38,31,20,32,27,17,93,85,75,30.43,30.26,10,4,14,0.00
2013-3-7,37,33,29,31,27,24,84,80,73,30.55,30.42,8,3,11,0.00
2013-3-8,37,31,26,28,24,21,94,77,60,30.68,30.53,11,5,16,0.02
2013-3-9,45,35,28,33,28,24,91,78,60,30.71,30.54,6,2,8,0.00
2013-3-10,56,46,32,34,29,25,77,53,38,30.55,30.29,14,8,22,0.00
2013-3-11,53,49,46,46,33,27,77,54,45,30.32,29.98,17,10,23,0.00
2013-3-12,53,41,34,47,36,28,95,84,75,30.19,29.98,17,7,29,0.23
2013-3-13,38,32,23,29,23,17,87,71,58,30.23,30.11,17,8,25,0.00
2013-3-14,30,25,17,19,13,8,87,62,40,30.34,30.21,18,12,28,0.00
2013-3-15,37,31,24,30,24,15,86,76,64,30.34,30.00,14,9,29,0.00
2013-3-16,29,24,18,21,18,14,88,78,69,30.27,30.12,10,4,17,0.00
2013-3-17,28,23,17,24,17,12,91,80,64,30.64,30.26,8,4,11,0.01
2013-3-18,32,24,15,27,18,12,95,80,51,30.65,30.08,20,8,26,0.00
2013-3-19,36,31,25,34,27,19,95,85,65,30.13,29.97,19,8,34,0.02
2013-3-20,31,26,23,24,19,15,85,73,55,30.14,30.09,13,9,24,0.00
2013-3-21,28,22,18,19,16,14,87,75,59,30.14,30.03,10,5,15,0.00
2013-4-13,44,41,38,38,35,33,88,80,67,30.23,30.07,9,6,0,0.01
2013-4-14,45,38,33,33,30,27,90,73,56,30.49,30.23,10,5,0,0.02
2013-4-15,68,50,34,49,40,28,86,68,49,30.48,30.32,13,7,0,0.00
2013-4-16,64,56,44,58,50,35,96,81,69,30.50,30.23,15,9,0,0.25
2013-4-17,54,45,37,39,34,31,79,67,49,30.62,30.50,6,3,0,0.00
2013-4-18,69,57,42,57,48,34,83,72,57,30.52,30.05,22,13,0,0.00
2013-4-19,72,56,41,60,50,33,90,80,64,30.04,29.64,18,12,26,0.08
2013-4-20,41,37,30,34,28,22,87,68,52,30.70,30.01,17,10,30,0.02
2013-4-21,44,34,28,28,24,19,80,65,49,30.97,30.70,6,3,10,0.00
2013-4-22,56,43,27,32,26,21,84,55,30,30.92,30.67,16,5,29,0.00
2013-4-23,58,48,36,39,34,27,75,58,44,30.67,30.27,12,8,21,0.00
2013-4-24,67,52,39,54,44,34,90,72,61,30.27,29.89,19,10,32,0.10
2013-4-25,54,46,36,39,33,28,94,63,39,30.59,30.26,13,6,25,0.05
2013-4-26,54,44,36,38,34,30,93,70,44,30.75,30.59,9,4,13,0.01
2013-4-27,66,50,32,42,35,28,89,60,35,30.73,30.51,6,2,9,0.00
2013-4-28,70,57,44,47,41,35,90,57,30,30.52,30.31,14,6,22,0.12
2013-4-29,59,54,49,52,48,44,91,81,69,30.35,30.27,14,10,22,0.04
2013-4-30,68,59,54,55,52,50,91,77,61,30.50,30.34,13,8,20,0.00
2013-5-1,73,63,54,51,41,32,82,49,23,30.63,30.50,12,6,23,0.00
2013-5-2,75,63,49,47,40,34,61,44,29,30.68,30.52,8,4,13,0.00
2013-5-3,72,62,50,48,44,40,73,53,37,30.58,30.48,11,5,16,0.00
2013-5-4,71,60,48,47,42,37,67,52,34,30.56,30.41,10,5,14,0.00
2013-5-5,74,61,46,49,43,36,85,56,26,30.48,30.34,9,3,14,0.00
2013-5-6,73,61,46,48,40,34,74,49,27,30.44,30.28,10,5,16,0.00
2013-5-7,76,65,52,56,51,46,87,64,35,30.38,30.25,7,3,12,0.00
2013-5-8,67,61,56,60,56,50,96,83,71,30.32,30.17,9,3,17,0.11
2013-5-9,68,59,51,61,55,50,97,89,71,30.21,30.14,9,3,14,0.38
2013-5-10,72,60,49,60,56,48,98,85,64,30.22,30.00,13,5,18,0.54
2013-5-11,61,56,47,58,51,44,96,85,69,30.03,29.92,11,6,22,0.41
2013-5-12,50,45,37,44,35,28,91,69,44,30.20,29.96,17,10,29,0.01
2013-5-13,47,40,34,33,30,28,81,69,52,30.41,30.20,12,8,21,0.00
2013-5-14,57,44,30,37,32,28,93,65,37,30.45,30.26,7,3,13,0.00
2013-5-15,75,54,45,56,42,33,80,65,50,30.26,29.89,12,5,33,0.04
2013-5-16,61,60,58,45,44,43,62,57,52,30.00,29.98,4,3,7,0.00
2013-5-18,68,62,52,52,48,43,78,61,47,30.56,30.42,9,5,12,0.00
2013-5-19,73,63,56,62,56,51,87,79,66,30.44,30.27,13,7,24,0.00
2013-5-20,82,72,59,67,62,57,92,72,54,30.31,30.10,8,4,18,0.00
2013-5-21,83,72,62,72,65,59,91,80,64,30.14,29.99,12,4,20,0.65
2013-5-22,83,77,73,72,62,57,77,59,48,29.96,29.89,15,7,22,0.01
2013-5-23,76,67,48,66,60,47,95,80,64,30.07,29.94,11,6,21,0.44
2013-5-24,48,42,38,46,39,36,96,90,71,30.45,30.07,11,8,20,0.13
2013-5-25,55,47,39,41,37,35,87,69,48,30.47,30.39,12,7,23,0.00
2013-5-26,59,51,41,40,36,32,82,60,38,30.47,30.37,12,7,20,0.00
2013-5-27,70,56,44,44,39,35,78,53,32,30.54,30.41,7,4,11,0.00
2013-5-28,61,55,48,56,50,41,98,84,62,30.44,30.23,9,4,15,0.80
2013-5-29,83,71,58,71,64,57,98,81,63,30.27,30.17,11,5,19,0.13
2013-5-30,87,76,64,69,65,62,93,73,47,30.35,30.26,7,3,13,0.00
2013-5-31,90,78,65,70,64,61,91,65,39,30.32,30.14,8,4,13,0.00
2013-6-1,88,76,65,70,66,61,90,72,50,30.18,30.01,14,6,19,0.00
2013-6-2,79,70,62,68,63,56,93,78,56,30.09,29.92,15,7,31,0.44
2013-6-3,63,56,49,56,47,44,89,74,53,30.27,30.09,9,5,19,0.00
2013-6-4,66,56,47,46,42,35,88,63,35,30.42,30.27,10,5,15,0.00
2013-6-5,68,56,46,52,45,40,85,67,43,30.49,30.35,8,3,11,0.00
2013-6-6,58,55,54,55,52,46,100,90,74,30.36,30.12,9,4,12,2.27
2013-6-7,64,59,56,62,58,55,98,97,92,30.12,30.03,5,3,9,0.13
2013-6-8,64,58,55,59,56,55,99,93,81,30.34,30.04,7,4,11,0.03
2013-6-9,73,64,52,59,55,50,94,75,56,30.46,30.34,5,2,9,0.00
2013-6-10,65,62,56,63,60,54,98,91,79,30.38,29.99,11,4,20,0.41
2013-6-11,65,63,58,64,61,55,98,93,84,30.07,29.90,13,6,18,0.65
2013-6-12,58,56,54,55,54,53,95,92,88,30.09,30.07,6,3,12,0.00
2013-6-13,59,57,55,58,56,54,97,96,95,30.02,29.87,10,5,17,1.06
2013-6-14,71,62,53,61,56,52,98,84,59,30.21,30.02,9,5,16,0.00
2013-6-15,72,64,54,58,52,45,88,69,38,30.30,30.20,9,5,16,0.00
2013-6-16,73,66,58,66,59,53,93,80,74,30.21,29.94,14,6,19,0.12
2013-6-17,78,68,59,65,60,55,95,78,45,30.17,30.07,12,4,22,0.00
2013-6-18,67,60,54,58,54,47,98,80,51,30.27,30.13,7,3,12,0.01
2013-6-19,65,58,48,49,46,42,92,68,45,30.46,30.27,7,2,12,0.00
2013-6-20,75,60,44,58,49,42,94,71,42,30.52,30.46,7,2,10,0.00
2013-6-21,80,66,52,62,54,46,87,67,44,30.53,30.41,5,2,8,0.00
2013-6-22,87,76,61,69,64,58,91,70,49,30.42,30.24,9,5,16,0.00
2013-6-23,89,76,69,74,69,65,91,79,58,30.30,30.23,10,4,17,0.37
2013-6-24,89,78,69,72,68,63,89,71,52,30.27,30.16,9,5,16,0.00
2013-6-25,83,75,66,70,66,62,92,75,63,30.18,30.02,12,5,18,0.00
2013-6-26,84,75,68,70,67,64,91,77,60,30.06,30.01,9,4,15,0.00
2013-6-27,79,71,64,71,67,62,97,87,69,30.05,29.85,11,2,11,0.15
2013-6-28,67,66,65,66,64,63,98,96,92,29.84,29.72,6,3,8,0.53
2013-6-29,71,67,64,67,65,63,97,92,85,29.94,29.79,5,2,7,0.59
2013-6-30,77,68,61,68,64,60,98,87,70,30.16,29.93,6,2,9,0.01
2013-7-1,68,64,61,65,63,61,98,96,89,30.27,30.15,6,2,9,0.34
2013-7-2,80,67,60,74,66,59,100,95,82,30.34,30.25,8,2,11,0.92
2013-7-3,83,73,64,75,69,64,100,90,73,30.40,30.32,8,2,10,0.23
2013-7-4,85,76,69,74,71,68,98,84,60,30.40,30.33,8,2,12,0.00
2013-7-5,86,76,68,76,72,67,99,86,62,30.38,30.27,8,3,10,0.20
2013-7-6,85,76,68,71,69,63,97,80,53,30.39,30.26,5,2,9,0.00
2013-7-7,84,78,72,75,70,66,96,76,64,30.29,30.15,7,4,12,0.14
2013-7-8,84,73,68,72,68,64,97,84,66,30.30,30.20,9,3,14,1.05
2013-7-9,84,73,68,74,70,67,98,90,65,30.30,30.16,10,2,13,0.22
2013-7-10,86,76,70,76,70,63,95,83,64,30.16,29.96,15,6,18,0.01
2013-7-11,73,71,68,65,64,63,84,78,71,30.07,30.04,7,6,14,0.00
2013-7-14,89,82,73,76,72,70,92,73,58,30.54,30.46,6,2,7,0.00
2013-7-15,86,77,69,75,71,66,96,83,60,30.52,30.44,6,2,10,0.00
2013-7-16,88,77,65,73,69,64,95,77,55,30.51,30.44,6,2,9,0.00
2013-7-17,92,80,68,78,72,66,96,79,56,30.47,30.30,7,3,10,0.00
2013-7-18,84,78,74,77,74,71,95,86,71,30.28,30.19,7,4,14,0.24
2013-7-19,92,81,69,76,72,65,93,75,52,30.20,29.96,14,8,21,0.32
2013-7-20,76,70,64,70,67,62,97,90,72,30.13,29.94,10,3,18,0.30
2013-7-21,75,68,62,66,62,59,98,83,61,30.26,30.13,7,2,10,0.00
2013-7-22,64,61,60,62,60,59,97,96,94,30.25,30.21,0,0,2,0.00
2013-7-23,83,76,68,70,66,60,84,72,58,29.92,29.86,10,5,14,0.33
2013-7-24,68,61,51,60,54,49,95,78,63,30.31,29.93,10,5,16,0.00
2013-7-25,71,59,47,57,52,46,97,79,56,30.40,30.31,8,3,12,0.01
2013-7-26,75,63,50,61,56,49,98,79,51,30.38,30.27,5,2,9,0.01
2013-7-27,81,67,56,68,62,54,96,86,64,30.28,30.11,10,3,12,0.12
2013-7-28,75,67,59,66,63,58,98,89,66,30.24,30.08,7,3,14,0.14
2013-7-29,70,62,56,61,57,54,97,86,62,30.39,30.24,8,3,14,0.06
2013-7-30,73,64,57,63,58,55,95,81,63,30.47,30.39,7,3,14,0.00
2013-7-31,76,67,54,63,59,53,97,79,57,30.42,30.20,5,2,12,0.01
2013-8-1,78,68,63,68,63,60,95,83,68,30.20,30.02,11,4,17,0.09
2013-8-2,74,66,58,65,61,56,97,84,59,30.16,30.07,9,2,15,0.15
2013-8-3,74,67,60,61,58,52,96,76,49,30.16,30.05,9,4,16,0.02
2013-8-4,68,63,56,59,55,51,91,77,59,30.29,30.16,12,6,20,0.00
2013-8-5,73,62,51,58,53,49,95,76,49,30.37,30.28,5,2,10,0.00
2013-8-6,75,68,54,62,60,52,95,78,60,30.29,30.25,5,3,10,0.00
2013-8-7,77,69,62,68,64,59,90,83,74,30.27,30.14,12,7,22,0.00
2013-8-8,83,72,65,74,67,63,98,86,67,30.21,30.13,9,3,14,0.37
2013-8-9,75,70,65,70,66,60,98,89,75,30.16,30.08,6,4,11,0.08
2013-8-10,71,65,54,61,57,52,94,77,59,30.34,30.16,9,4,15,0.02
2013-8-11,74,63,52,58,55,50,96,77,53,30.38,30.29,6,2,11,0.02
2013-8-12,77,67,58,66,60,56,93,79,58,30.30,30.11,6,2,10,0.01
2013-8-13,72,65,57,68,60,49,98,86,68,30.11,29.98,11,5,19,1.56
2013-8-14,65,58,54,51,50,48,83,74,60,30.33,30.08,9,5,17,0.00
2013-8-15,73,60,49,56,52,47,94,74,51,30.41,30.32,8,4,14,0.00
2013-8-16,74,62,50,60,53,48,95,75,49,30.47,30.38,6,2,9,0.00
2013-8-17,76,65,52,63,57,51,95,77,50,30.56,30.46,5,2,7,0.00
2013-8-18,77,66,56,64,60,55,96,81,54,30.51,30.35,5,2,7,0.00
2013-8-19,80,69,58,65,61,57,96,77,48,30.36,30.26,6,2,10,0.00
2013-8-20,82,69,58,66,61,56,96,78,51,30.38,30.30,7,3,15,0.00
2013-8-21,85,72,60,68,63,58,94,76,49,30.41,30.26,5,3,9,0.00
2013-8-22,85,72,63,71,66,60,94,83,58,30.27,30.10,14,4,19,0.03
2013-8-23,72,64,53,63,57,52,97,80,61,30.45,30.21,6,2,11,0.00
2013-8-24,73,61,49,59,53,48,98,78,52,30.61,30.45,5,1,8,0.01
2013-8-25,81,66,50,64,57,49,97,76,46,30.62,30.39,8,3,12,0.01
2013-8-26,79,70,65,70,65,61,97,86,70,30.43,30.16,9,5,16,0.82
2013-8-27,84,73,66,73,69,65,99,89,67,30.18,30.10,5,2,15,0.01
2013-8-28,81,72,66,73,69,66,98,91,74,30.18,30.09,7,2,10,0.79
2013-8-29,81,71,62,72,67,61,99,89,69,30.28,30.17,6,2,10,0.01
2013-8-30,85,72,60,71,65,59,98,81,51,30.27,30.02,6,2,9,0.01
2013-8-31,82,74,68,73,70,67,96,87,69,30.09,29.97,9,4,16,0.01
2013-9-1,80,72,66,72,68,65,98,88,71,30.09,29.97,9,2,9,0.04
2013-9-2,84,70,66,73,68,65,97,92,69,30.02,29.93,9,3,14,0.03
2013-9-4,75,69,66,60,58,56,82,67,53,30.20,30.18,9,5,16,0.00
2013-9-5,65,58,49,61,50,42,93,75,52,30.48,30.20,10,4,13,0.00
2013-9-6,68,55,41,54,46,39,100,75,47,30.56,30.38,4,2,7,0.00
2013-9-7,67,59,50,59,53,46,93,83,68,30.38,30.13,7,2,10,0.00
2013-9-8,64,59,45,63,53,44,97,80,54,30.39,30.10,7,3,15,0.10
2013-9-9,72,58,43,59,50,41,96,77,55,30.45,30.25,11,4,23,0.00
2013-9-10,91,76,63,78,69,58,93,80,61,30.29,30.19,11,6,18,0.03
2013-9-11,81,76,72,73,70,66,90,82,71,30.25,30.13,13,6,15,0.00
2013-9-12,75,69,61,70,65,58,95,87,79,30.15,29.95,9,4,17,0.15
2013-9-13,61,54,49,58,52,48,97,94,90,30.26,29.97,8,5,13,0.11
2013-9-14,59,50,43,49,45,41,97,84,60,30.42,30.26,7,3,13,0.00
2013-9-15,67,55,42,54,47,41,94,78,45,30.46,30.33,7,3,10,0.00
2013-9-16,54,50,43,53,48,41,97,93,82,30.66,30.35,6,3,11,0.14
2013-9-17,60,48,35,47,41,34,97,79,47,30.80,30.61,4,1,9,0.01
2013-9-18,69,55,41,53,46,39,98,76,50,30.61,30.39,6,2,10,0.00
2013-9-19,74,61,48,58,52,45,93,73,51,30.41,30.29,7,3,10,0.00
2013-9-20,70,56,52,62,54,51,97,93,78,30.30,30.26,5,3,9,0.00
2013-9-22,53,50,48,48,44,42,89,78,70,30.30,30.13,10,6,17,0.08
2013-9-23,56,49,40,45,43,38,95,80,62,30.42,30.29,7,3,13,0.01
2013-9-24,63,50,39,49,43,38,96,80,51,30.43,30.29,7,3,12,0.01
2013-9-25,67,51,39,54,46,38,97,83,51,30.31,30.23,5,2,9,0.00
2013-9-26,68,53,41,56,48,40,100,85,60,30.44,30.29,6,2,8,0.01
2013-9-27,68,54,42,58,50,41,99,88,63,30.55,30.44,7,2,10,0.01
2013-9-28,69,56,44,58,51,44,99,85,60,30.60,30.47,7,2,12,0.01
2013-9-29,72,59,47,56,51,46,96,76,52,30.48,30.29,9,4,22,0.01
2013-9-30,73,61,50,60,55,47,94,80,62,30.31,30.21,5,2,8,0.00
2013-10-1,74,64,55,61,57,53,98,81,52,30.29,30.18,8,2,10,0.00
2013-10-2,74,66,56,64,59,54,93,79,58,30.33,30.18,10,4,18,0.00
2013-10-3,71,59,46,56,50,44,97,74,41,30.41,30.30,5,1,7,0.01
2013-10-4,73,63,58,68,61,52,98,93,79,30.32,30.24,5,2,9,0.02
2013-10-5,64,60,58,61,59,57,98,96,92,30.36,30.30,4,1,7,0.01
2013-10-6,80,67,59,72,64,58,100,90,72,30.30,30.04,11,5,22,0.00
2013-10-7,71,61,50,65,55,44,96,81,59,30.29,29.86,14,8,23,0.05
2013-10-8,62,52,42,48,45,40,95,80,52,30.65,30.29,7,3,15,0.57
2013-10-9,63,50,37,50,43,36,98,81,50,30.72,30.59,5,2,10,0.01
2013-10-10,63,50,41,50,45,39,96,83,53,30.59,30.45,4,1,7,0.00
2013-10-11,47,46,44,46,44,43,96,96,95,30.45,30.41,3,1,6,0.00
2013-10-13,68,63,58,59,56,53,94,77,66,30.57,30.51,9,4,15,0.03
2013-10-14,58,56,55,56,55,54,97,96,94,30.55,30.53,6,3,7,0.34
2013-10-16,61,59,57,57,55,52,93,87,81,30.10,30.05,9,6,18,0.20
2013-10-17,62,56,47,52,50,45,97,81,62,30.16,29.93,8,4,13,0.46
2013-10-18,57,51,46,51,45,39,97,78,58,30.20,29.98,11,6,20,0.08
2013-10-19,60,53,44,48,44,40,90,73,56,30.20,29.92,14,7,20,0.04
2013-10-20,50,46,41,43,40,37,90,80,68,30.29,30.03,10,5,18,0.00
2013-10-21,65,54,42,43,41,39,94,64,40,30.30,30.08,14,6,22,0.00
2013-10-22,55,46,38,48,38,31,95,73,52,30.14,30.02,12,6,22,0.02
2013-10-23,45,39,34,38,35,31,91,84,71,30.12,29.97,11,3,14,0.00
2013-10-24,47,39,31,36,32,26,93,77,45,30.31,30.09,16,8,24,0.04
2013-10-25,47,40,35,39,35,33,94,83,64,30.48,30.31,10,5,17,0.01
2013-10-26,46,42,38,36,31,27,90,64,51,30.44,30.10,16,10,30,0.01
2013-10-27,48,42,37,36,34,31,89,75,57,30.37,30.11,11,6,18,0.00
2013-10-28,48,41,28,40,33,25,91,74,56,30.69,30.34,11,4,18,0.00
2013-10-29,44,34,22,31,27,20,94,74,54,30.79,30.61,5,1,9,0.00
2013-10-30,54,44,37,42,37,31,92,77,59,30.61,30.42,6,2,8,0.00
2013-10-31,62,50,37,57,47,35,96,89,82,30.41,29.99,12,6,17,0.27
2013-11-2,52,45,37,46,42,36,96,91,74,30.25,29.91,8,4,17,0.31
2013-11-3,37,33,27,36,27,22,96,81,64,30.83,30.25,8,4,14,0.02
2013-11-4,38,32,21,28,23,19,95,72,52,30.97,30.80,9,2,11,0.01
2013-11-5,52,44,35,38,29,22,70,57,48,30.81,30.64,13,8,19,0.00
2013-11-6,62,53,46,51,45,38,85,75,66,30.65,30.11,15,10,25,0.00
2013-11-7,56,43,36,53,39,30,96,84,70,30.26,30.06,13,6,19,0.46
2013-11-8,40,36,32,34,29,26,95,78,62,30.53,30.22,12,7,16,0.04
2013-11-9,48,40,32,38,30,27,82,70,59,30.52,30.09,11,6,18,0.00
2013-11-10,51,43,37,42,35,30,92,75,63,30.42,30.07,17,10,34,0.11
2013-11-11,45,37,28,35,31,27,94,78,56,30.46,30.22,14,7,26,0.03
2013-11-12,31,26,24,27,22,19,94,82,66,30.68,30.39,14,8,21,0.00
2013-11-13,36,28,19,25,20,14,91,72,53,30.75,30.41,11,7,18,0.00
2013-11-14,38,33,32,22,15,14,54,48,45,30.44,30.38,11,5,15,0.00
2013-11-15,52,45,38,30,23,18,52,41,34,30.42,30.34,8,4,0,0.00
2013-11-16,56,48,36,41,34,25,74,60,45,30.55,30.37,10,3,0,0.00
2013-11-17,57,55,51,54,52,49,93,88,85,30.22,29.69,18,12,27,0.08
2013-11-18,58,47,35,54,37,26,96,68,53,30.16,29.65,21,14,38,0.28
2013-11-19,36,33,28,30,26,23,92,78,69,30.75,30.16,14,8,24,0.01
2013-11-20,35,28,20,24,20,16,85,75,55,30.92,30.74,7,2,10,0.00
2013-11-21,42,37,29,36,25,15,89,64,50,30.81,30.58,12,8,18,0.01
2013-11-22,47,41,32,46,40,28,97,93,82,30.57,30.26,16,6,21,0.31
2013-11-23,32,29,28,28,25,23,87,85,78,30.46,30.41,13,8,22,0.00
2013-11-25,33,32,31,19,15,13,61,51,43,30.48,30.44,9,7,16,0.00
2013-11-26,34,32,30,32,27,20,97,84,62,30.48,30.09,9,4,15,0.40
2013-11-27,32,29,21,32,27,18,97,94,84,30.16,29.87,14,8,21,0.29
2013-11-28,24,20,16,20,16,13,92,83,67,30.75,30.17,13,5,21,0.00
2013-11-29,27,22,18,20,18,12,94,84,65,31.03,30.75,6,2,11,0.01
2013-12-1,36,34,33,32,30,27,95,87,74,30.38,30.27,4,2,14,0.08
2013-12-2,38,35,33,34,32,31,95,91,84,30.27,30.15,5,1,7,0.01
2013-12-3,38,32,26,32,28,24,96,87,71,30.32,30.20,3,1,8,0.00
2013-12-4,47,39,31,41,36,28,97,89,80,30.35,30.23,10,4,14,0.02
2013-12-5,57,51,44,52,47,40,90,86,72,30.23,30.05,15,10,28,0.00
2013-12-7,30,26,22,21,16,14,75,67,58,30.86,30.69,12,7,19,0.00
2013-12-8,24,20,17,16,14,12,83,77,69,30.90,30.85,7,2,9,0.00
2013-12-10,24,22,19,19,15,10,90,74,60,30.36,30.21,12,7,16,0.00
2013-12-11,21,19,14,18,14,8,88,80,70,30.58,30.36,9,6,12,0.00
2013-12-12,18,15,9,13,9,4,85,77,69,30.64,30.37,12,6,19,0.00
2013-12-13,24,19,15,19,15,12,91,85,74,30.61,30.35,12,7,21,0.00
2013-12-16,9,2,-3,5,-1,-6,89,87,85,30.51,30.49,2,0,2,0.00
2013-12-17,29,18,-5,23,14,-8,92,87,75,30.50,30.24,11,4,16,0.00
2013-12-18,29,26,22,25,22,20,92,85,75,30.38,30.24,11,6,21,0.00
2013-12-19,41,34,25,31,26,18,85,73,63,30.36,30.22,10,4,18,0.01
2013-12-20,45,42,35,44,37,31,95,85,70,30.30,30.07,8,4,12,0.04
2013-12-21,54,43,31,51,42,30,97,95,90,30.16,30.04,10,5,16,0.88
2013-12-22,31,31,30,30,30,30,97,97,97,30.10,30.03,5,3,10,0.11
2013-12-24,23,16,10,22,13,7,93,89,80,30.78,30.50,10,6,17,0.00
2013-12-25,15,9,3,10,5,0,91,86,77,30.87,30.76,7,3,14,0.00
2013-12-26,33,28,25,26,22,18,87,78,71,30.58,30.36,12,7,17,0.00
2013-12-27,31,27,22,27,22,16,87,82,74,30.59,30.52,10,4,21,0.00
2013-12-30,18,15,13,13,10,8,84,80,76,30.52,30.46,10,4,16,0.00
2013-12-31,25,17,13,18,11,5,92,76,67,30.56,30.28,17,7,25,0.00
2014-1-1,20,16,12,10,8,6,77,68,56,30.72,30.56,10,6,16,0.00
2014-1-2,11,7,4,8,4,2,90,89,89,30.31,30.28,10,7,15,0.00